[[{"header":{"parameterUnit":"m.s-1","parameterCategory":1,"la1":30.2991,"la2":30.254,"lo1":-89.0895,"lo2":-89.0444,"dy":0.0017,"dx":0.0017,"nx":28,"ny":28,"refTime":"2024-10-07T21:00:00:Z","depth":0,"parameterNumber":2,"parameterNumberName":"U-component_of_WINDS"},"data":[0,0,0,0,0,0,0,0,0,0,0,0,0,0,0,0,0,0,0,0,0,0,0,0,0,0,0,0,0,0,0,0,0,0,0,0,0,0,0,0,0,0,0,0,0,0,0,0,0,0,0,0,0,0,0,0,0,0,-0.7459,-0.7459,0,-0.7429,-0.7429,-0.7429,-0.7406,-0.7406,-0.7406,-0.7405,-0.7376,-0.7375,-0.7374,0,0,0,0,0,0,0,0,0,0,0,0,0,-0.7495,-0.7494,-0.7459,-0.7458,-0.7458,-0.7429,-0.7429,-0.7429,-0.7406,-0.7406,-0.7406,-0.7405,-0.7376,-0.7375,-0.7374,0,0,0,0,0,0,0,0,0,0,0,0,0,-0.7474,-0.7494,-0.7459,-0.7443,-0.7442,-0.7429,-0.7429,-0.7428,-0.7406,-0.7406,-0.7406,-0.7405,-0.7376,-0.7375,-0.7374,-0.7375,0,0,-0.7372,-0.7371,0,0,0,0,0,0,0,0,-0.7475,-0.7472,-0.7446,-0.7444,-0.7443,-0.7421,-0.7431,-0.7411,-0.7406,-0.742,-0.7405,-0.7405,-0.7391,-0.7389,-0.7384,-0.7374,-0.7372,-0.7371,-0.7371,-0.7371,-0.737,0,0,0,0,0,0,0,-0.7476,-0.7473,-0.7447,-0.7446,-0.7444,-0.7438,-0.7434,-0.7427,-0.7408,-0.7418,-0.7417,-0.7414,-0.739,-0.7385,-0.7383,-0.7372,-0.7371,-0.7371,-0.737,-0.737,-0.7359,-0.7359,0,0,0,0,0,0,-0.748,-0.7475,-0.7448,-0.7446,-0.7458,-0.7437,-0.7433,-0.7428,-0.7408,-0.7404,-0.7414,-0.7413,-0.7387,-0.7384,-0.7382,-0.7381,-0.7371,-0.737,-0.7369,-0.7359,-0.7359,-0.7359,0,0,0,0,0,0,-0.7481,-0.7478,-0.7449,-0.746,-0.7456,-0.7437,-0.7431,-0.7428,-0.7423,-0.7404,-0.74,-0.7412,-0.7386,-0.7383,-0.7377,-0.7379,-0.7369,-0.7368,-0.7359,-0.7359,-0.7359,-0.7379,0,0,0,0,0,0,-0.7482,-0.7479,-0.7479,-0.746,-0.7455,-0.7445,-0.7431,-0.7428,-0.7421,-0.7419,-0.7402,-0.7398,-0.7386,-0.7378,-0.7376,-0.7378,-0.7368,-0.7358,-0.7359,-0.7359,-0.7378,-0.738,-0.7381,0,0,0,0,0,-0.7484,-0.7486,-0.7479,-0.7476,-0.7456,-0.7445,-0.7442,-0.7428,-0.7422,-0.7422,-0.7409,-0.7399,-0.7379,-0.7378,-0.7375,-0.7377,-0.7358,-0.7359,-0.7359,-0.7377,-0.7379,-0.7381,0,0,0,0,0,0,-0.7506,-0.7483,-0.7476,-0.7472,-0.7461,-0.7441,-0.7441,-0.7431,-0.7421,-0.742,-0.7402,-0.7398,-0.7393,-0.7384,-0.7383,-0.7375,-0.7367,-0.7367,-0.7382,-0.7384,-0.7385,-0.7388,-0.7367,0,0,0,0,0,-0.7511,-0.7504,-0.7484,-0.7483,-0.7478,-0.746,-0.7455,-0.7445,-0.7432,-0.7427,-0.7415,-0.7403,-0.7394,-0.7388,-0.7379,-0.7376,-0.7371,-0.7376,-0.7378,-0.7379,-0.7379,-0.7376,-0.7377,-0.7361,-0.7361,-0.7361,0,0,-0.752,-0.7507,-0.7504,-0.7487,-0.7477,-0.747,-0.7457,-0.745,-0.7445,-0.7426,-0.7419,-0.7409,-0.7394,-0.7389,-0.7386,-0.7382,-0.7383,-0.738,-0.7381,-0.7381,-0.7377,-0.7378,-0.7379,-0.7362,-0.7362,-0.7362,0,0,-0.7534,-0.7523,-0.7521,-0.751,-0.7495,-0.7483,-0.7482,-0.7464,-0.7457,-0.7449,-0.7434,-0.7427,-0.7413,-0.7402,-0.7395,-0.7403,-0.7393,-0.74,-0.741,-0.7407,-0.7408,-0.7409,-0.7411,-0.7412,-0.7401,-0.7401,-0.7401,0,-0.7547,-0.7537,-0.752,-0.7514,-0.7507,-0.7489,-0.7486,-0.7477,-0.7459,-0.7455,-0.7449,-0.7429,-0.7418,-0.741,-0.7412,-0.7407,-0.7405,-0.7403,-0.7409,-0.741,-0.7411,-0.7412,-0.7413,-0.7402,-0.7402,-0.7402,-0.7401,0,-0.7554,-0.7546,-0.7546,-0.7529,-0.7521,-0.7517,-0.7499,-0.7494,-0.7483,-0.7472,-0.7463,-0.7449,-0.7436,-0.7433,-0.7424,-0.7423,-0.742,-0.7412,-0.7404,-0.7413,-0.7415,-0.7415,-0.7403,-0.7403,-0.7403,-0.7402,0,0,-0.7582,-0.7555,-0.7555,-0.7546,-0.7527,-0.7521,-0.7515,-0.7501,-0.7496,-0.7485,-0.7478,-0.7465,-0.7457,-0.7449,-0.7438,-0.7435,-0.7441,-0.7427,-0.7427,-0.743,-0.7438,-0.7444,-0.7445,-0.7434,-0.7434,-0.7434,-0.7439,0,-0.7592,-0.758,-0.7565,-0.7558,-0.755,-0.7533,-0.7527,-0.7515,-0.7503,-0.7495,-0.7482,-0.7473,-0.7463,-0.7458,-0.7454,-0.7441,-0.7442,-0.744,-0.7427,-0.7427,-0.7432,-0.7446,-0.7452,-0.7458,-0.7439,-0.7439,-0.744,0,-0.7603,-0.7591,-0.7583,-0.7564,-0.756,-0.7555,-0.7541,-0.7533,-0.7518,-0.751,-0.75,-0.7487,-0.7479,-0.7471,-0.7459,-0.7458,-0.7452,-0.7444,-0.7444,-0.7442,-0.7434,-0.7444,-0.7459,-0.746,-0.744,-0.744,-0.744,0,-0.7623,-0.7605,-0.7598,-0.7591,-0.7568,-0.7565,-0.7555,-0.754,-0.7532,-0.752,-0.7515,-0.7501,-0.7494,-0.7484,-0.7468,-0.7464,-0.7457,-0.7448,-0.745,-0.745,-0.7449,-0.745,-0.7464,-0.7446,-0.7446,-0.7446,-0.7446,0,-0.7636,-0.7632,-0.7607,-0.7602,-0.7597,-0.7579,-0.7574,-0.7562,-0.7548,-0.7541,-0.7524,-0.7518,-0.7497,-0.7487,-0.7475,-0.7466,-0.7463,-0.7456,-0.7452,-0.7457,-0.7458,-0.7453,-0.7452,-0.7446,-0.7446,-0.7446,-0.7446,0,-0.7658,-0.7641,-0.7632,-0.761,-0.7605,-0.7601,-0.7583,-0.7577,-0.7564,-0.7555,-0.7552,-0.7531,-0.7519,-0.7502,-0.7485,-0.7476,-0.7469,-0.7464,-0.7474,-0.7472,-0.7474,-0.7474,-0.7486,-0.7486,-0.7468,-0.7468,-0.7469,0,-0.7667,-0.7663,-0.7641,-0.7635,-0.7625,-0.7616,-0.7608,-0.7589,-0.7581,-0.7562,-0.7559,-0.7546,-0.7534,-0.7515,-0.7499,-0.7485,-0.7479,-0.7484,-0.7477,-0.7481,-0.7478,-0.7479,-0.7478,-0.7486,-0.7486,-0.7486,-0.7486,0,-0.7685,-0.7677,-0.7666,-0.7652,-0.7642,-0.763,-0.7617,-0.7613,-0.7592,-0.7583,-0.7571,-0.7561,-0.7543,-0.753,-0.7513,-0.7503,-0.7491,-0.7489,-0.7488,-0.7493,-0.7499,-0.7495,-0.7479,-0.7489,-0.7488,-0.7488,-0.7488,-0.7488,-0.7701,-0.7696,-0.7679,-0.7667,-0.7655,-0.7643,-0.7637,-0.7623,-0.7612,-0.7595,-0.7585,-0.7572,-0.7555,-0.7532,-0.7522,-0.7511,-0.7506,-0.7506,-0.7506,-0.7506,-0.7507,-0.75,-0.7508,-0.7508,-0.7508,-0.7508,-0.7508,0,-0.7717,-0.7705,-0.7694,-0.7676,-0.7667,-0.7656,-0.7641,-0.7633,-0.7622,-0.7608,-0.7596,-0.758,-0.7567,-0.7549,-0.7533,-0.7528,-0.7522,-0.7525,-0.7525,-0.7523,-0.7513,-0.7514,-0.753,-0.753,-0.753,-0.753,-0.753,-0.753,-0.7725,-0.7716,-0.7705,-0.769,-0.7678,-0.7665,-0.7657,-0.7646,-0.7634,-0.7617,-0.7606,-0.7594,-0.7577,-0.756,-0.7547,-0.7542,-0.7537,-0.7541,-0.7534,-0.7525,-0.7523,-0.7522,-0.7523,-0.754,-0.754,-0.7545,-0.7545,-0.7545]},{"header":{"parameterUnit":"m.s-1","parameterCategory":1,"la1":30.2991,"la2":30.254,"lo1":-89.0895,"lo2":-89.0444,"dy":0.0017,"dx":0.0017,"nx":28,"ny":28,"refTime":"2024-10-07T21:00:00:Z","depth":0,"parameterNumber":3,"parameterNumberName":"V-component_of_WINDS"},"data":[0,0,0,0,0,0,0,0,0,0,0,0,0,0,0,0,0,0,0,0,0,0,0,0,0,0,0,0,0,0,0,0,0,0,0,0,0,0,0,0,0,0,0,0,0,0,0,0,0,0,0,0,0,0,0,0,0,0,-4.1977,-4.1977,0,-4.1969,-4.1969,-4.1969,-4.1946,-4.1946,-4.1946,-4.1945,-4.1932,-4.1932,-4.1932,0,0,0,0,0,0,0,0,0,0,0,0,0,-4.1971,-4.1971,-4.1977,-4.1977,-4.1977,-4.1969,-4.1969,-4.1969,-4.1947,-4.1946,-4.1945,-4.1945,-4.1932,-4.1932,-4.1932,0,0,0,0,0,0,0,0,0,0,0,0,0,-4.1969,-4.1971,-4.1977,-4.1965,-4.1964,-4.1969,-4.1969,-4.1968,-4.1947,-4.1946,-4.1945,-4.1945,-4.1932,-4.1932,-4.1932,-4.1947,0,0,-4.1933,-4.1933,0,0,0,0,0,0,0,0,-4.1969,-4.1969,-4.1967,-4.1966,-4.1964,-4.1958,-4.1962,-4.1961,-4.1947,-4.1953,-4.1945,-4.1944,-4.1941,-4.194,-4.194,-4.1946,-4.1946,-4.1933,-4.1933,-4.1933,-4.1933,0,0,0,0,0,0,0,-4.1969,-4.1969,-4.1973,-4.1967,-4.1965,-4.1959,-4.1958,-4.1961,-4.1951,-4.1952,-4.1951,-4.195,-4.194,-4.194,-4.194,-4.1946,-4.1933,-4.1933,-4.1933,-4.1933,-4.1966,-4.1966,0,0,0,0,0,0,-4.1972,-4.197,-4.1974,-4.1973,-4.1965,-4.196,-4.1959,-4.1961,-4.1951,-4.1949,-4.1951,-4.1949,-4.194,-4.194,-4.1939,-4.1957,-4.1933,-4.1933,-4.1933,-4.1965,-4.1966,-4.1967,0,0,0,0,0,0,-4.1972,-4.1972,-4.1974,-4.1971,-4.1971,-4.1961,-4.1963,-4.1961,-4.1961,-4.195,-4.1947,-4.1953,-4.194,-4.1939,-4.1946,-4.1956,-4.1933,-4.1933,-4.1964,-4.1965,-4.1966,-4.1993,0,0,0,0,0,0,-4.1971,-4.1972,-4.1978,-4.1971,-4.1971,-4.1982,-4.1964,-4.1961,-4.1962,-4.196,-4.1951,-4.1949,-4.1939,-4.1946,-4.1946,-4.1956,-4.1933,-4.1963,-4.1964,-4.1966,-4.1991,-4.1995,-4.1998,0,0,0,0,0,-4.1971,-4.1984,-4.1979,-4.1979,-4.1979,-4.1983,-4.1982,-4.1972,-4.1963,-4.1968,-4.1962,-4.1949,-4.1955,-4.1947,-4.1947,-4.1957,-4.1962,-4.1964,-4.1966,-4.1989,-4.1994,-4.1998,0,0,0,0,0,0,-4.199,-4.1983,-4.1977,-4.1988,-4.1987,-4.1979,-4.1986,-4.1977,-4.1976,-4.1974,-4.196,-4.1958,-4.1968,-4.1963,-4.1954,-4.1972,-4.1957,-4.1959,-4.1975,-4.1979,-4.1983,-4.1983,-4.1933,0,0,0,0,0,-4.1996,-4.2001,-4.1994,-4.2005,-4.2005,-4.1996,-4.1997,-4.199,-4.1986,-4.1985,-4.1979,-4.1975,-4.1976,-4.1977,-4.1978,-4.199,-4.1988,-4.1997,-4.2001,-4.2004,-4.2005,-4.2013,-4.2018,-4.1973,-4.1972,-4.1972,0,0,-4.2008,-4.2004,-4.2008,-4.2009,-4.2007,-4.2012,-4.1995,-4.2,-4.2004,-4.1985,-4.1992,-4.1988,-4.1983,-4.1993,-4.1998,-4.199,-4.2018,-4.2006,-4.2008,-4.2009,-4.2016,-4.202,-4.2024,-4.1974,-4.1973,-4.1973,0,0,-4.2031,-4.2029,-4.2039,-4.2038,-4.2036,-4.203,-4.2033,-4.2027,-4.2024,-4.2032,-4.2018,-4.2022,-4.2024,-4.2022,-4.2021,-4.2047,-4.2036,-4.2047,-4.2066,-4.2074,-4.2077,-4.208,-4.2091,-4.2095,-4.2049,-4.2049,-4.2049,0,-4.2045,-4.2054,-4.2045,-4.2052,-4.2054,-4.2039,-4.2049,-4.2048,-4.2045,-4.2046,-4.2038,-4.2042,-4.2038,-4.2048,-4.2055,-4.2054,-4.2057,-4.2048,-4.2078,-4.2081,-4.2083,-4.2093,-4.2097,-4.2051,-4.205,-4.205,-4.205,0,-4.2072,-4.2078,-4.2086,-4.2087,-4.2089,-4.2097,-4.2089,-4.2092,-4.2085,-4.208,-4.2089,-4.2083,-4.2084,-4.2085,-4.2077,-4.2096,-4.2091,-4.208,-4.2065,-4.2089,-4.2099,-4.2102,-4.2053,-4.2052,-4.2052,-4.2051,0,0,-4.2106,-4.2104,-4.2107,-4.2108,-4.2106,-4.211,-4.2118,-4.2121,-4.2124,-4.2123,-4.213,-4.2133,-4.2124,-4.2124,-4.2115,-4.2122,-4.2145,-4.2111,-4.2111,-4.2118,-4.2167,-4.2175,-4.218,-4.2138,-4.2139,-4.2139,-4.2167,0,-4.213,-4.2145,-4.2139,-4.2154,-4.2161,-4.2148,-4.2156,-4.2155,-4.2151,-4.2155,-4.215,-4.2153,-4.2141,-4.214,-4.2147,-4.2141,-4.2155,-4.2139,-4.2144,-4.2145,-4.2147,-4.2184,-4.2193,-4.222,-4.2171,-4.2171,-4.2172,0,-4.2159,-4.2162,-4.218,-4.2179,-4.2181,-4.2188,-4.2191,-4.2195,-4.2194,-4.2191,-4.2191,-4.2182,-4.219,-4.2175,-4.2186,-4.2175,-4.2177,-4.2175,-4.2176,-4.2176,-4.216,-4.2187,-4.2228,-4.2232,-4.2177,-4.2177,-4.2176,0,-4.2184,-4.2192,-4.2204,-4.2205,-4.2204,-4.221,-4.2209,-4.2208,-4.221,-4.2212,-4.2214,-4.2216,-4.2217,-4.2219,-4.2211,-4.22,-4.2223,-4.2207,-4.2221,-4.2221,-4.2226,-4.2226,-4.2269,-4.2226,-4.2226,-4.2226,-4.2226,0,-4.2211,-4.2222,-4.2216,-4.2223,-4.2236,-4.2228,-4.2241,-4.2239,-4.2238,-4.2245,-4.2233,-4.2239,-4.2228,-4.2233,-4.2226,-4.2237,-4.2237,-4.2235,-4.2233,-4.2236,-4.2237,-4.2237,-4.2236,-4.2227,-4.2227,-4.2226,-4.2226,0,-4.2241,-4.2237,-4.225,-4.2249,-4.2249,-4.2258,-4.2257,-4.2264,-4.226,-4.2268,-4.227,-4.2264,-4.2269,-4.2261,-4.2265,-4.2261,-4.2276,-4.2271,-4.2277,-4.2276,-4.2291,-4.229,-4.2336,-4.2342,-4.2295,-4.2295,-4.2296,0,-4.2259,-4.2268,-4.2269,-4.2274,-4.2275,-4.2282,-4.2285,-4.2278,-4.2282,-4.2283,-4.229,-4.2295,-4.2299,-4.2308,-4.2303,-4.2307,-4.2302,-4.2318,-4.2302,-4.2306,-4.2304,-4.2304,-4.2305,-4.2322,-4.2322,-4.2323,-4.2323,0,-4.2292,-4.229,-4.2296,-4.2303,-4.2308,-4.2312,-4.2315,-4.2319,-4.2312,-4.2317,-4.2324,-4.2327,-4.2333,-4.2338,-4.2341,-4.2339,-4.233,-4.2328,-4.2332,-4.2335,-4.2339,-4.2339,-4.2287,-4.2327,-4.2327,-4.2326,-4.2326,-4.2326,-4.2317,-4.2325,-4.2328,-4.2336,-4.2338,-4.2342,-4.2349,-4.2348,-4.2354,-4.236,-4.2355,-4.2364,-4.2364,-4.2367,-4.2367,-4.2373,-4.2366,-4.2371,-4.2372,-4.2374,-4.2377,-4.2338,-4.2373,-4.2373,-4.2373,-4.2373,-4.2373,0,-4.235,-4.2352,-4.236,-4.2366,-4.2373,-4.2366,-4.2369,-4.2375,-4.2384,-4.2386,-4.2391,-4.2399,-4.2405,-4.2402,-4.2407,-4.2413,-4.2409,-4.2414,-4.2414,-4.2414,-4.2382,-4.2379,-4.2418,-4.2418,-4.2418,-4.2418,-4.2418,-4.2418,-4.2368,-4.2383,-4.2382,-4.2398,-4.2399,-4.241,-4.2413,-4.2416,-4.2418,-4.243,-4.2435,-4.2434,-4.2434,-4.2439,-4.2445,-4.2443,-4.2446,-4.2454,-4.2451,-4.2421,-4.2416,-4.2412,-4.2409,-4.2454,-4.2454,-4.2483,-4.2483,-4.2484]}]]